Location: Most
(50.5133°N, 13.6207°E)
Time: 10:53:09
(UTC+01:00)

SEEDS - Pass Details

Date: 04 December 2021
Orbit: 584 x 600 km, 97.6° (Epoch: 22 January)

Event Time Altitude Azimuth Distance (km) Brightness Sun altitude
Rises 05:17:51 0° 8° (N) 2,824 ? -22.9°
Reaches altitude 10° 05:20:04 10° 3° (N) 1,918 ? -22.5°
Enters shadow 05:20:33 13° 1° (N) 1,731 ? -22.5°
